This demonstration page uses our WeatherBlox Daily Observations layout. Learn more.

41.55636, -103.73856

Hourly Observations for January 14, 2020

Temp ( °F °C ) Dew Point ( °F °C ) Humidity (%) Winds ( mph kmh ) Pressure ( in mb ) Visibility ( mi km ) Precip ( " mm )
12:58 am 00:58 Mostly Clear 33 0.6 11 -11.9 39 39 WNW 10 17 30.01 1016 10 16.0934 0 0
2:58 am 02:58 Clear 31 -0.7 13 -10.7 47 47 WNW 18 30 30.02 1017 10 16.0934 0 0
3:58 am 03:58 Clear 25 -3.7 13 -10.3 61 61 W 9 15 30.06 1018 10 16.0934 0 0
4:58 am 04:58 Clear 22 -5.6 13 -10.6 68 68 W 10 17 30.06 1018 10 16.0934 0 0
5:58 am 05:58 Mostly Clear 24 -4.3 13 -10.5 62 62 WSW 6 9 30.02 1017 10 16.0934 0 0
6:58 am 06:58 Mostly Clear 26 -3.1 13 -10.4 57 57 NNW 8 13 30.01 1016 10 16.0934 0 0
7:58 am 07:58 Clear 24 -4.3 14 -10.1 64 64 SSW 7 11 29.99 1016 10 16.0934 0 0
8:58 am 08:58 Clear 25 -4.1 14 -10.1 63 63 Calm 30 1016 10 16.0934 0 0
9:58 am 09:58 Clear 21 -6.1 13 -10.4 72 72 SSW 8 13 30.01 1016 10 16.0934 0 0
10:58 am 10:58 Clear 23 -4.8 14 -9.9 68 68 S 9 15 30 1016 10 16.0934 0 0
11:58 am 11:58 Mostly Cloudy 21 -5.9 13 -10.4 71 71 SE 13 20 29.99 1016 10 16.0934 0 0
12:58 pm 12:58 Mostly Cloudy 26 -3.1 12 -10.9 55 55 SSW 12 19 29.98 1015 10 16.0934 0 0
1:58 pm 13:58 Mostly Clear 28 -2.4 12 -10.9 53 53 SSW 18 30 29.95 1014 10 16.0934 0 0
2:58 pm 14:58 Sunny 29 -1.9 12 -11.2 49 49 SSW 21 33 29.93 1014 10 16.0934 0 0
3:58 pm 15:58 Sunny 30 -1.1 13 -10.5 49 49 SSW 17 28 29.95 1014 10 16.0934 0 0
4:58 pm 16:58 Sunny 34 1.2 14 -10.1 43 43 S 17 28 29.94 1014 10 16.0934 0 0
5:58 pm 17:58 Sunny 39 4 13 -10.7 34 34 SSW 12 19 29.91 1013 10 16.0934 0 0
6:58 pm 18:58 Sunny 43 6.2 12 -10.9 28 28 SSW 9 15 29.85 1011 10 16.0934 0 0
7:58 pm 19:58 Sunny 46 7.7 13 -10.8 26 26 SSE 5 7 29.79 1009 10 16.0934 0 0
8:58 pm 20:58 Sunny 50 9.8 13 -10.8 22 22 SSW 9 15 29.75 1007 10 16.0934 0 0
9:58 pm 21:58 Mostly Sunny 50 9.8 13 -10.4 23 23 SW 14 22 29.76 1008 10 16.0934 0 0
10:58 pm 22:58 Sunny 45 7.3 18 -7.8 34 34 NW 8 13 29.81 1010 10 16.0934 0 0
11:58 pm 23:58 Clear 39 3.7 19 -7.3 45 45 NW 9 15 29.85 1011 10 16.0934 0 0

Powered by AerisWeather